Precipitable_Water
0.22 0.22 0.22 0.22 0.22 0.22 0.22 0.22 0.22 0.23 0.23 0.23 0.23 0.24 0.24 0.25 0.26 0.26 0.27 0.28 0.29 0.30 0.30 0.31 0.31 0.31 0.31 0.31 0.31 0.32 0.33 0.33 0.33 0.34 0.34 0.35 0.36 0.37 0.37 0.37 0.37 0.37 0.38 0.38 0.39 0.39 0.40 0.40 0.40 0.40 0.40 0.40 0.40 0.40 0.40 0.40 0.41 0.41 0.40 0.40 0.39 0.38 0.37 0.36 0.34 0.33 0.32 0.33 0.32 0.31 0.30 0.28 0.27 0.26 0.25 0.24 0.23 0.23 0.22 0.21 0.20 0.19 0.18 0.18 0.17
0.21 0.22 0.22 0.22 0.22 0.22 0.22 0.22 0.22 0.23 0.22 0.23 0.23 0.23 0.24 0.24 0.25 0.26 0.26 0.27 0.28 0.29 0.29 0.30 0.30 0.31 0.31 0.31 0.31 0.31 0.32 0.32 0.32 0.33 0.33 0.33 0.33 0.34 0.34 0.34 0.35 0.35 0.35 0.35 0.36 0.36 0.37 0.37 0.37 0.37 0.38 0.38 0.38 0.38 0.38 0.38 0.38 0.37 0.37 0.37 0.36 0.36 0.36 0.34 0.32 0.31 0.30 0.29 0.29 0.28 0.26 0.26 0.24 0.24 0.23 0.22 0.21 0.21 0.20 0.19 0.18 0.17 0.16 0.16 0.15
0.22 0.22 0.21 0.21 0.22 0.22 0.22 0.22 0.22 0.22 0.22 0.22 0.22 0.23 0.23 0.24 0.24 0.25 0.25 0.26 0.27 0.28 0.28 0.29 0.29 0.30 0.30 0.30 0.30 0.30 0.31 0.31 0.31 0.31 0.32 0.32 0.32 0.32 0.33 0.34 0.34 0.34 0.34 0.34 0.34 0.34 0.34 0.34 0.34 0.35 0.35 0.35 0.35 0.35 0.35 0.35 0.35 0.35 0.34 0.34 0.34 0.33 0.33 0.32 0.31 0.29 0.28 0.27 0.26 0.25 0.24 0.23 0.22 0.21 0.21 0.20 0.19 0.18 0.17 0.16 0.15 0.15 0.14 0.13 0.13
0.22 0.21 0.21 0.21 0.21 0.21 0.21 0.22 0.22 0.22 0.21 0.22 0.22 0.22 0.23 0.23 0.24 0.24 0.25 0.26 0.27 0.27 0.28 0.28 0.28 0.29 0.29 0.30 0.30 0.30 0.30 0.30 0.30 0.31 0.31 0.31 0.32 0.32 0.31 0.31 0.32 0.32 0.32 0.33 0.33 0.33 0.32 0.32 0.32 0.33 0.33 0.33 0.32 0.33 0.32 0.32 0.32 0.32 0.31 0.31 0.31 0.30 0.29 0.29 0.28 0.26 0.25 0.24 0.23 0.22 0.22 0.20 0.20 0.19 0.18 0.17 0.16 0.16 0.15 0.14 0.14 0.13 0.12 0.12 0.11
0.21 0.21 0.21 0.21 0.21 0.21 0.21 0.21 0.21 0.21 0.21 0.21 0.22 0.22 0.22 0.23 0.23 0.24 0.25 0.25 0.26 0.26 0.27 0.27 0.27 0.28 0.28 0.29 0.30 0.30 0.30 0.30 0.30 0.30 0.30 0.30 0.30 0.31 0.31 0.31 0.31 0.31 0.30 0.31 0.31 0.31 0.31 0.30 0.30 0.31 0.31 0.30 0.30 0.30 0.30 0.29 0.29 0.29 0.28 0.28 0.27 0.27 0.26 0.25 0.24 0.23 0.22 0.21 0.21 0.20 0.19 0.18 0.18 0.17 0.16 0.15 0.14 0.13 0.13 0.12 0.12 0.11 0.11 0.11 0.11
0.21 0.21 0.21 0.20 0.20 0.20 0.20 0.21 0.21 0.21 0.21 0.21 0.22 0.22 0.22 0.22 0.23 0.24 0.24 0.25 0.25 0.26 0.26 0.27 0.27 0.27 0.28 0.29 0.29 0.30 0.30 0.30 0.29 0.29 0.29 0.29 0.29 0.30 0.30 0.30 0.30 0.30 0.30 0.30 0.30 0.30 0.29 0.29 0.29 0.29 0.29 0.28 0.28 0.28 0.27 0.27 0.26 0.26 0.26 0.25 0.25 0.24 0.24 0.23 0.22 0.21 0.20 0.19 0.18 0.17 0.17 0.16 0.15 0.14 0.14 0.13 0.12 0.12 0.11 0.11 0.11 0.11 0.10 0.10 0.10
0.21 0.21 0.21 0.20 0.20 0.20 0.20 0.20 0.21 0.21 0.21 0.21 0.22 0.22 0.22 0.22 0.23 0.23 0.24 0.25 0.25 0.25 0.26 0.26 0.26 0.26 0.27 0.28 0.29 0.29 0.29 0.29 0.29 0.29 0.29 0.28 0.28 0.28 0.29 0.29 0.28 0.28 0.28 0.28 0.28 0.28 0.28 0.28 0.28 0.27 0.27 0.26 0.26 0.26 0.25 0.25 0.25 0.24 0.24 0.23 0.23 0.22 0.21 0.21 0.20 0.19 0.18 0.17 0.16 0.15 0.14 0.14 0.13 0.12 0.12 0.12 0.11 0.11 0.10 0.10 0.09 0.10 0.09 0.09 0.09
0.21 0.21 0.20 0.20 0.20 0.20 0.20 0.20 0.20 0.21 0.21 0.21 0.21 0.22 0.22 0.22 0.23 0.23 0.24 0.24 0.25 0.25 0.25 0.26 0.26 0.26 0.26 0.27 0.28 0.29 0.29 0.29 0.28 0.28 0.28 0.28 0.28 0.28 0.27 0.28 0.27 0.27 0.27 0.27 0.27 0.27 0.26 0.26 0.26 0.26 0.25 0.25 0.25 0.24 0.24 0.24 0.23 0.23 0.22 0.21 0.21 0.20 0.19 0.18 0.17 0.16 0.16 0.15 0.14 0.13 0.13 0.12 0.12 0.12 0.11 0.11 0.10 0.10 0.10 0.09 0.09 0.08 0.08 0.08 0.08
0.20 0.20 0.20 0.20 0.20 0.20 0.20 0.20 0.20 0.20 0.21 0.21 0.21 0.21 0.22 0.22 0.23 0.23 0.24 0.24 0.25 0.25 0.25 0.25 0.26 0.26 0.26 0.27 0.28 0.28 0.28 0.28 0.28 0.28 0.27 0.27 0.27 0.27 0.27 0.26 0.26 0.26 0.26 0.26 0.26 0.26 0.26 0.25 0.25 0.25 0.25 0.24 0.24 0.23 0.23 0.22 0.22 0.21 0.20 0.19 0.18 0.17 0.17 0.16 0.15 0.14 0.14 0.13 0.13 0.12 0.12 0.11 0.11 0.11 0.10 0.10 0.09 0.09 0.09 0.09 0.09 0.08 0.08 0.07 0.07
0.20 0.20 0.20 0.19 0.20 0.20 0.20 0.20 0.20 0.20 0.20 0.21 0.21 0.21 0.22 0.22 0.23 0.23 0.23 0.24 0.24 0.25 0.25 0.25 0.25 0.25 0.25 0.26 0.27 0.27 0.27 0.27 0.27 0.27 0.27 0.27 0.26 0.26 0.26 0.26 0.25 0.25 0.25 0.24 0.24 0.24 0.24 0.24 0.24 0.24 0.23 0.23 0.22 0.22 0.21 0.21 0.20 0.19 0.18 0.17 0.16 0.16 0.15 0.14 0.14 0.13 0.13 0.12 0.12 0.11 0.11 0.10 0.10 0.10 0.09 0.09 0.09 0.09 0.09 0.09 0.08 0.08 0.07 0.06 0.06
0.20 0.20 0.19 0.20 0.20 0.20 0.20 0.20 0.20 0.20 0.20 0.21 0.21 0.21 0.22 0.22 0.22 0.23 0.23 0.23 0.24 0.24 0.25 0.25 0.25 0.25 0.25 0.25 0.26 0.26 0.26 0.27 0.27 0.27 0.27 0.26 0.26 0.25 0.25 0.24 0.24 0.24 0.23 0.23 0.23 0.23 0.23 0.23 0.23 0.22 0.22 0.22 0.21 0.21 0.20 0.20 0.19 0.18 0.18 0.17 0.16 0.15 0.14 0.14 0.13 0.13 0.12 0.11 0.11 0.11 0.10 0.10 0.09 0.09 0.09 0.09 0.09 0.09 0.08 0.08 0.08 0.07 0.06 0.06 0.05
0.20 0.20 0.20 0.20 0.20 0.20 0.20 0.20 0.20 0.20 0.21 0.21 0.21 0.21 0.22 0.22 0.22 0.23 0.23 0.23 0.24 0.24 0.24 0.24 0.25 0.25 0.25 0.25 0.25 0.25 0.26 0.26 0.27 0.27 0.26 0.26 0.25 0.24 0.24 0.24 0.23 0.23 0.23 0.23 0.22 0.22 0.22 0.22 0.21 0.21 0.21 0.20 0.20 0.19 0.19 0.18 0.18 0.17 0.16 0.16 0.15 0.15 0.14 0.13 0.12 0.11 0.11 0.10 0.10 0.10 0.09 0.09 0.09 0.09 0.09 0.09 0.08 0.08 0.08 0.08 0.07 0.07 0.06 0.06 0.05
0.20 0.20 0.20 0.20 0.20 0.20 0.20 0.20 0.20 0.20 0.20 0.21 0.21 0.22 0.22 0.22 0.22 0.23 0.23 0.23 0.24 0.24 0.24 0.24 0.24 0.24 0.24 0.24 0.24 0.25 0.26 0.26 0.26 0.26 0.26 0.25 0.25 0.24 0.23 0.23 0.23 0.22 0.22 0.22 0.21 0.21 0.20 0.20 0.20 0.19 0.19 0.19 0.18 0.18 0.17 0.16 0.16 0.15 0.15 0.14 0.14 0.14 0.13 0.13 0.12 0.11 0.11 0.10 0.09 0.09 0.09 0.09 0.08 0.09 0.09 0.09 0.08 0.07 0.07 0.07 0.07 0.06 0.06 0.06 0.05
0.20 0.20 0.20 0.20 0.20 0.20 0.20 0.20 0.20 0.20 0.21 0.21 0.21 0.22 0.22 0.22 0.23 0.23 0.23 0.23 0.24 0.24 0.24 0.24 0.24 0.24 0.24 0.24 0.25 0.25 0.26 0.26 0.26 0.26 0.25 0.25 0.24 0.23 0.23 0.22 0.22 0.21 0.21 0.20 0.20 0.19 0.19 0.19 0.18 0.18 0.18 0.17 0.17 0.16 0.16 0.15 0.14 0.14 0.14 0.13 0.13 0.12 0.12 0.11 0.11 0.11 0.11 0.10 0.09 0.09 0.09 0.09 0.09 0.09 0.09 0.09 0.08 0.07 0.07 0.06 0.06 0.06 0.06 0.05 0.05
0.20 0.20 0.20 0.20 0.20 0.20 0.20 0.20 0.20 0.20 0.21 0.21 0.21 0.22 0.22 0.22 0.23 0.23 0.23 0.23 0.23 0.24 0.24 0.24 0.24 0.24 0.24 0.25 0.25 0.25 0.26 0.26 0.25 0.25 0.25 0.24 0.23 0.22 0.22 0.21 0.20 0.20 0.19 0.19 0.19 0.19 0.18 0.18 0.17 0.17 0.16 0.16 0.15 0.15 0.14 0.14 0.13 0.13 0.13 0.12 0.12 0.11 0.11 0.11 0.11 0.11 0.10 0.10 0.09 0.09 0.09 0.09 0.09 0.09 0.09 0.09 0.08 0.08 0.07 0.07 0.06 0.06 0.06 0.05 0.05
0.20 0.20 0.20 0.20 0.20 0.20 0.20 0.20 0.20 0.20 0.21 0.21 0.21 0.22 0.22 0.23 0.23 0.23 0.23 0.23 0.24 0.24 0.24 0.24 0.24 0.24 0.24 0.24 0.24 0.25 0.25 0.25 0.25 0.24 0.24 0.23 0.22 0.21 0.20 0.20 0.19 0.19 0.19 0.18 0.18 0.18 0.17 0.17 0.16 0.16 0.15 0.15 0.14 0.14 0.13 0.13 0.13 0.12 0.12 0.12 0.11 0.11 0.10 0.10 0.11 0.11 0.10 0.10 0.10 0.10 0.10 0.10 0.10 0.09 0.09 0.09 0.08 0.07 0.07 0.06 0.06 0.05 0.05 0.05 0.04
0.19 0.19 0.19 0.20 0.20 0.20 0.20 0.20 0.20 0.20 0.21 0.21 0.21 0.22 0.22 0.23 0.23 0.23 0.23 0.23 0.23 0.23 0.24 0.24 0.24 0.24 0.24 0.24 0.24 0.24 0.24 0.25 0.24 0.23 0.23 0.22 0.21 0.20 0.20 0.19 0.19 0.18 0.18 0.17 0.17 0.17 0.16 0.16 0.15 0.15 0.14 0.14 0.14 0.13 0.13 0.12 0.12 0.12 0.11 0.11 0.10 0.10 0.09 0.09 0.09 0.09 0.10 0.10 0.10 0.10 0.09 0.08 0.08 0.07 0.07 0.08 0.07 0.07 0.06 0.05 0.05 0.05 0.05 0.04 0.04
0.19 0.19 0.19 0.20 0.20 0.20 0.20 0.20 0.20 0.20 0.21 0.21 0.21 0.22 0.22 0.23 0.23 0.23 0.22 0.23 0.23 0.23 0.24 0.23 0.23 0.23 0.23 0.23 0.23 0.23 0.24 0.24 0.23 0.23 0.22 0.21 0.20 0.19 0.19 0.18 0.18 0.17 0.17 0.17 0.16 0.16 0.15 0.15 0.14 0.14 0.13 0.13 0.13 0.13 0.13 0.12 0.12 0.11 0.11 0.10 0.09 0.09 0.09 0.09 0.08 0.08 0.09 0.08 0.08 0.08 0.07 0.07 0.06 0.06 0.06 0.07 0.06 0.06 0.06 0.05 0.05 0.05 0.05 0.04 0.04
0.19 0.19 0.19 0.20 0.20 0.20 0.20 0.20 0.20 0.20 0.21 0.21 0.22 0.22 0.22 0.22 0.22 0.22 0.22 0.22 0.22 0.23 0.23 0.23 0.23 0.23 0.23 0.23 0.23 0.23 0.23 0.22 0.22 0.21 0.21 0.20 0.19 0.18 0.18 0.17 0.16 0.16 0.16 0.15 0.15 0.15 0.14 0.14 0.13 0.13 0.12 0.12 0.13 0.13 0.13 0.12 0.12 0.11 0.10 0.10 0.09 0.08 0.08 0.08 0.08 0.08 0.08 0.07 0.07 0.07 0.06 0.06 0.06 0.06 0.06 0.06 0.06 0.06 0.06 0.06 0.05 0.05 0.05 0.04 0.04
0.20 0.20 0.20 0.20 0.20 0.20 0.20 0.20 0.21 0.21 0.21 0.22 0.22 0.22 0.22 0.22 0.22 0.22 0.22 0.22 0.22 0.22 0.22 0.22 0.22 0.22 0.22 0.22 0.22 0.22 0.21 0.21 0.21 0.20 0.20 0.19 0.18 0.17 0.17 0.16 0.16 0.15 0.15 0.14 0.14 0.14 0.13 0.13 0.13 0.13 0.12 0.12 0.12 0.13 0.13 0.13 0.12 0.11 0.10 0.09 0.08 0.08 0.08 0.08 0.08 0.08 0.07 0.07 0.06 0.06 0.06 0.06 0.06 0.06 0.06 0.06 0.06 0.06 0.06 0.06 0.05 0.05 0.05 0.04 0.04
0.20 0.19 0.19 0.20 0.20 0.20 0.20 0.20 0.21 0.21 0.22 0.22 0.22 0.22 0.22 0.22 0.22 0.22 0.22 0.22 0.22 0.22 0.22 0.21 0.21 0.21 0.22 0.21 0.21 0.20 0.20 0.20 0.20 0.19 0.18 0.18 0.17 0.16 0.16 0.16 0.15 0.15 0.14 0.14 0.13 0.13 0.13 0.12 0.12 0.12 0.11 0.11 0.12 0.12 0.13 0.12 0.11 0.10 0.10 0.09 0.09 0.09 0.08 0.08 0.08 0.07 0.07 0.06 0.06 0.06 0.06 0.06 0.06 0.06 0.06 0.06 0.06 0.06 0.06 0.06 0.05 0.05 0.05 0.04 0.04
0.20 0.19 0.19 0.19 0.20 0.20 0.20 0.21 0.21 0.22 0.22 0.22 0.22 0.22 0.22 0.22 0.22 0.22 0.21 0.21 0.21 0.21 0.21 0.21 0.21 0.21 0.21 0.21 0.20 0.20 0.20 0.20 0.19 0.19 0.18 0.17 0.17 0.16 0.16 0.15 0.15 0.15 0.14 0.14 0.13 0.13 0.12 0.12 0.12 0.11 0.11 0.11 0.11 0.12 0.12 0.11 0.11 0.10 0.09 0.10 0.09 0.09 0.08 0.08 0.07 0.07 0.06 0.06 0.06 0.06 0.06 0.06 0.06 0.06 0.06 0.06 0.06 0.06 0.06 0.05 0.05 0.05 0.05 0.05 0.04
0.19 0.19 0.19 0.19 0.20 0.20 0.20 0.21 0.21 0.22 0.22 0.23 0.22 0.22 0.22 0.22 0.22 0.21 0.21 0.21 0.21 0.20 0.20 0.20 0.20 0.20 0.20 0.20 0.20 0.20 0.20 0.19 0.19 0.18 0.18 0.17 0.17 0.16 0.16 0.15 0.15 0.14 0.14 0.13 0.13 0.12 0.12 0.12 0.11 0.11 0.11 0.11 0.11 0.12 0.11 0.11 0.10 0.09 0.09 0.09 0.08 0.08 0.07 0.07 0.07 0.06 0.06 0.06 0.06 0.06 0.06 0.06 0.06 0.06 0.06 0.06 0.06 0.06 0.05 0.05 0.05 0.05 0.05 0.05 0.05
0.19 0.19 0.19 0.19 0.20 0.20 0.21 0.21 0.21 0.22 0.22 0.22 0.22 0.22 0.22 0.22 0.21 0.21 0.21 0.20 0.20 0.20 0.20 0.20 0.19 0.19 0.19 0.19 0.19 0.19 0.19 0.19 0.19 0.18 0.18 0.17 0.16 0.16 0.16 0.15 0.15 0.14 0.13 0.13 0.12 0.12 0.11 0.11 0.11 0.11 0.10 0.11 0.11 0.11 0.10 0.09 0.09 0.08 0.08 0.08 0.07 0.07 0.07 0.07 0.07 0.06 0.06 0.06 0.06 0.06 0.06 0.06 0.06 0.06 0.06 0.06 0.05 0.05 0.05 0.05 0.05 0.05 0.05 0.05 0.05
0.19 0.18 0.19 0.19 0.20 0.20 0.21 0.21 0.21 0.22 0.22 0.22 0.22 0.22 0.22 0.21 0.21 0.21 0.20 0.20 0.20 0.19 0.19 0.19 0.19 0.19 0.18 0.18 0.18 0.18 0.19 0.19 0.18 0.18 0.17 0.17 0.16 0.16 0.15 0.15 0.14 0.14 0.13 0.12 0.12 0.11 0.11 0.11 0.11 0.11 0.10 0.10 0.10 0.09 0.09 0.08 0.08 0.08 0.08 0.07 0.07 0.07 0.07 0.07 0.06 0.06 0.06 0.06 0.06 0.06 0.06 0.06 0.06 0.06 0.06 0.06 0.05 0.05 0.05 0.05 0.05 0.05 0.05 0.05 0.05
0.18 0.18 0.18 0.19 0.20 0.20 0.20 0.21 0.21 0.21 0.21 0.22 0.22 0.22 0.21 0.21 0.21 0.20 0.20 0.19 0.19 0.19 0.19 0.19 0.18 0.18 0.18 0.18 0.18 0.18 0.18 0.18 0.18 0.17 0.17 0.17 0.16 0.15 0.15 0.15 0.14 0.14 0.13 0.12 0.12 0.11 0.11 0.11 0.10 0.10 0.10 0.10 0.09 0.09 0.08 0.08 0.08 0.08 0.07 0.07 0.07 0.07 0.07 0.07 0.06 0.06 0.06 0.06 0.06 0.06 0.06 0.06 0.06 0.06 0.06 0.05 0.05 0.05 0.05 0.05 0.04 0.04 0.04 0.04 0.04
0.18 0.18 0.18 0.19 0.19 0.20 0.20 0.20 0.21 0.21 0.21 0.21 0.21 0.21 0.21 0.21 0.20 0.20 0.20 0.19 0.19 0.19 0.18 0.18 0.18 0.18 0.18 0.18 0.18 0.18 0.18 0.17 0.17 0.17 0.17 0.16 0.15 0.15 0.15 0.15 0.14 0.14 0.13 0.12 0.11 0.11 0.11 0.10 0.10 0.10 0.10 0.09 0.09 0.09 0.08 0.08 0.07 0.07 0.07 0.07 0.07 0.07 0.07 0.07 0.07 0.06 0.06 0.06 0.06 0.06 0.06 0.06 0.06 0.05 0.05 0.05 0.05 0.05 0.05 0.04 0.04 0.04 0.04 0.04 0.04
0.18 0.18 0.18 0.19 0.19 0.19 0.20 0.20 0.20 0.20 0.21 0.21 0.20 0.20 0.20 0.20 0.20 0.20 0.19 0.19 0.19 0.18 0.18 0.18 0.18 0.18 0.18 0.17 0.17 0.17 0.17 0.17 0.17 0.16 0.16 0.16 0.15 0.15 0.15 0.15 0.14 0.13 0.12 0.11 0.11 0.11 0.10 0.10 0.10 0.09 0.09 0.09 0.08 0.08 0.08 0.07 0.07 0.07 0.07 0.07 0.07 0.07 0.07 0.07 0.07 0.07 0.07 0.07 0.06 0.06 0.06 0.05 0.05 0.05 0.05 0.05 0.04 0.04 0.04 0.04 0.04 0.04 0.04 0.04 0.04
0.18 0.18 0.18 0.18 0.19 0.19 0.19 0.20 0.20 0.20 0.20 0.20 0.20 0.20 0.20 0.20 0.20 0.20 0.20 0.20 0.19 0.18 0.18 0.18 0.18 0.18 0.18 0.17 0.17 0.16 0.16 0.16 0.16 0.17 0.16 0.16 0.16 0.15 0.15 0.15 0.14 0.13 0.12 0.11 0.11 0.10 0.10 0.10 0.09 0.09 0.09 0.08 0.08 0.07 0.07 0.07 0.07 0.07 0.07 0.07 0.07 0.07 0.07 0.07 0.07 0.07 0.06 0.06 0.06 0.06 0.05 0.05 0.05 0.05 0.05 0.04 0.04 0.04 0.04 0.04 0.04 0.04 0.04 0.04 0.04
0.18 0.18 0.18 0.18 0.18 0.19 0.19 0.19 0.19 0.20 0.20 0.20 0.20 0.20 0.20 0.20 0.20 0.19 0.19 0.19 0.19 0.19 0.18 0.18 0.18 0.18 0.17 0.17 0.17 0.16 0.16 0.16 0.17 0.17 0.16 0.16 0.16 0.15 0.15 0.14 0.14 0.13 0.12 0.11 0.10 0.10 0.09 0.09 0.09 0.09 0.08 0.08 0.07 0.07 0.07 0.07 0.07 0.07 0.07 0.07 0.07 0.07 0.07 0.07 0.07 0.06 0.06 0.06 0.06 0.05 0.05 0.05 0.05 0.05 0.04 0.04 0.04 0.04 0.04 0.04 0.04 0.04 0.04 0.04 0.04
0.17 0.17 0.18 0.18 0.18 0.18 0.19 0.19 0.19 0.19 0.19 0.19 0.19 0.19 0.19 0.19 0.20 0.19 0.19 0.19 0.19 0.19 0.18 0.18 0.18 0.18 0.18 0.17 0.17 0.17 0.17 0.17 0.16 0.16 0.16 0.16 0.16 0.15 0.15 0.14 0.13 0.13 0.12 0.11 0.10 0.10 0.09 0.09 0.08 0.08 0.08 0.07 0.07 0.07 0.07 0.07 0.07 0.07 0.07 0.07 0.07 0.07 0.07 0.07 0.06 0.06 0.06 0.06 0.06 0.05 0.05 0.05 0.05 0.04 0.04 0.04 0.04 0.04 0.04 0.04 0.04 0.04 0.04 0.04 0.04
0.17 0.17 0.18 0.18 0.18 0.18 0.18 0.18 0.19 0.19 0.19 0.19 0.19 0.18 0.18 0.18 0.18 0.19 0.19 0.19 0.18 0.18 0.18 0.18 0.18 0.18 0.18 0.17 0.17 0.17 0.17 0.16 0.16 0.16 0.16 0.16 0.15 0.15 0.14 0.14 0.13 0.12 0.12 0.11 0.10 0.09 0.09 0.08 0.08 0.08 0.08 0.07 0.07 0.07 0.07 0.07 0.07 0.07 0.07 0.06 0.06 0.07 0.06 0.06 0.06 0.06 0.06 0.06 0.05 0.05 0.05 0.05 0.04 0.04 0.04 0.04 0.04 0.04 0.04 0.04 0.04 0.04 0.04 0.04 0.04
0.17 0.17 0.18 0.18 0.18 0.18 0.18 0.18 0.18 0.18 0.18 0.18 0.18 0.18 0.18 0.18 0.17 0.17 0.18 0.18 0.18 0.18 0.18 0.18 0.18 0.18 0.17 0.17 0.17 0.16 0.16 0.16 0.16 0.16 0.16 0.15 0.15 0.14 0.14 0.13 0.13 0.12 0.11 0.10 0.09 0.09 0.09 0.08 0.08 0.08 0.07 0.07 0.07 0.07 0.07 0.07 0.07 0.07 0.07 0.06 0.06 0.06 0.06 0.06 0.06 0.06 0.06 0.05 0.05 0.05 0.05 0.05 0.04 0.04 0.04 0.04 0.04 0.04 0.04 0.03 0.04 0.04 0.04 0.04 0.04
0.17 0.18 0.18 0.18 0.18 0.18 0.18 0.18 0.18 0.18 0.18 0.18 0.18 0.18 0.18 0.18 0.17 0.17 0.17 0.17 0.17 0.17 0.18 0.18 0.17 0.17 0.17 0.17 0.16 0.16 0.16 0.16 0.16 0.16 0.15 0.15 0.15 0.14 0.13 0.13 0.12 0.12 0.11 0.10 0.09 0.09 0.08 0.08 0.08 0.07 0.07 0.07 0.07 0.07 0.07 0.07 0.07 0.07 0.06 0.06 0.06 0.06 0.06 0.06 0.06 0.06 0.05 0.05 0.05 0.05 0.05 0.04 0.04 0.04 0.04 0.04 0.04 0.04 0.03 0.03 0.03 0.03 0.03 0.03 0.04
0.17 0.17 0.18 0.18 0.18 0.18 0.18 0.18 0.18 0.18 0.18 0.18 0.18 0.18 0.17 0.17 0.17 0.17 0.17 0.16 0.16 0.16 0.16 0.17 0.17 0.17 0.16 0.16 0.16 0.16 0.16 0.15 0.15 0.15 0.15 0.15 0.14 0.13 0.13 0.12 0.11 0.11 0.10 0.09 0.09 0.09 0.08 0.08 0.08 0.07 0.07 0.07 0.07 0.07 0.07 0.07 0.07 0.07 0.06 0.06 0.06 0.06 0.06 0.06 0.05 0.05 0.05 0.05 0.05 0.05 0.04 0.04 0.04 0.04 0.04 0.04 0.03 0.03 0.03 0.03 0.03 0.03 0.03 0.03 0.04
0.17 0.17 0.17 0.17 0.17 0.17 0.18 0.18 0.18 0.17 0.17 0.17 0.17 0.17 0.17 0.17 0.17 0.16 0.16 0.16 0.16 0.16 0.16 0.16 0.16 0.16 0.16 0.16 0.16 0.15 0.15 0.15 0.15 0.15 0.14 0.14 0.13 0.13 0.11 0.11 0.10 0.10 0.09 0.09 0.09 0.08 0.08 0.08 0.08 0.07 0.07 0.07 0.07 0.07 0.07 0.07 0.07 0.06 0.06 0.06 0.06 0.06 0.06 0.05 0.05 0.05 0.05 0.05 0.05 0.04 0.04 0.04 0.04 0.04 0.04 0.04 0.03 0.03 0.03 0.03 0.03 0.03 0.03 0.03 0.04
0.17 0.17 0.17 0.17 0.17 0.17 0.17 0.17 0.17 0.17 0.17 0.17 0.17 0.17 0.17 0.16 0.16 0.16 0.16 0.16 0.16 0.15 0.15 0.16 0.16 0.15 0.15 0.15 0.15 0.15 0.15 0.15 0.14 0.14 0.14 0.13 0.13 0.12 0.11 0.10 0.10 0.09 0.09 0.09 0.08 0.08 0.08 0.08 0.08 0.07 0.07 0.07 0.07 0.07 0.07 0.07 0.06 0.06 0.06 0.06 0.06 0.06 0.05 0.05 0.05 0.05 0.05 0.05 0.04 0.04 0.04 0.04 0.04 0.04 0.04 0.03 0.03 0.03 0.03 0.03 0.03 0.03 0.03 0.03 0.04
0.17 0.17 0.17 0.17 0.17 0.17 0.17 0.17 0.17 0.17 0.17 0.17 0.17 0.16 0.16 0.16 0.16 0.16 0.16 0.15 0.15 0.15 0.15 0.15 0.15 0.15 0.14 0.14 0.15 0.15 0.14 0.14 0.14 0.14 0.13 0.13 0.12 0.11 0.11 0.10 0.09 0.09 0.09 0.08 0.08 0.08 0.08 0.08 0.07 0.07 0.07 0.07 0.07 0.07 0.07 0.06 0.06 0.06 0.06 0.06 0.06 0.05 0.05 0.05 0.05 0.05 0.05 0.04 0.04 0.04 0.04 0.04 0.04 0.04 0.04 0.03 0.03 0.03 0.03 0.03 0.03 0.03 0.03 0.03 0.04
0.17 0.17 0.17 0.17 0.17 0.17 0.17 0.17 0.17 0.17 0.16 0.16 0.16 0.16 0.16 0.15 0.15 0.15 0.15 0.15 0.15 0.15 0.15 0.15 0.15 0.14 0.14 0.14 0.14 0.14 0.14 0.13 0.13 0.13 0.12 0.12 0.11 0.11 0.10 0.10 0.09 0.09 0.08 0.08 0.08 0.08 0.08 0.07 0.07 0.07 0.07 0.07 0.07 0.07 0.06 0.06 0.06 0.06 0.06 0.06 0.05 0.05 0.05 0.05 0.05 0.05 0.04 0.04 0.04 0.04 0.04 0.04 0.04 0.04 0.04 0.03 0.03 0.03 0.03 0.03 0.03 0.03 0.03 0.03 0.04
0.17 0.17 0.17 0.16 0.17 0.17 0.17 0.17 0.16 0.16 0.16 0.16 0.16 0.15 0.15 0.15 0.15 0.15 0.15 0.15 0.15 0.15 0.14 0.14 0.14 0.14 0.14 0.14 0.14 0.14 0.13 0.13 0.13 0.12 0.12 0.11 0.11 0.10 0.10 0.09 0.09 0.09 0.08 0.08 0.08 0.08 0.07 0.07 0.07 0.07 0.07 0.07 0.07 0.07 0.06 0.06 0.06 0.06 0.06 0.06 0.05 0.05 0.05 0.05 0.05 0.04 0.04 0.04 0.04 0.04 0.04 0.04 0.04 0.04 0.04 0.04 0.04 0.03 0.03 0.03 0.03 0.03 0.03 0.03 0.04
0.16 0.16 0.16 0.16 0.16 0.16 0.16 0.16 0.16 0.16 0.16 0.15 0.15 0.15 0.15 0.15 0.15 0.15 0.15 0.14 0.14 0.14 0.14 0.14 0.14 0.14 0.14 0.14 0.14 0.13 0.13 0.13 0.12 0.12 0.11 0.11 0.10 0.10 0.09 0.09 0.09 0.08 0.08 0.08 0.08 0.08 0.07 0.07 0.07 0.07 0.07 0.07 0.07 0.06 0.06 0.06 0.06 0.06 0.06 0.05 0.05 0.05 0.05 0.05 0.05 0.04 0.04 0.04 0.04 0.04 0.04 0.04 0.04 0.04 0.03 0.04 0.04 0.03 0.03 0.03 0.03 0.03 0.03 0.04 0.04
0.16 0.16 0.16 0.16 0.16 0.16 0.16 0.15 0.15 0.15 0.15 0.15 0.15 0.15 0.15 0.15 0.14 0.14 0.14 0.14 0.14 0.14 0.14 0.14 0.14 0.14 0.14 0.13 0.13 0.13 0.13 0.12 0.12 0.11 0.11 0.10 0.10 0.09 0.09 0.09 0.09 0.08 0.08 0.08 0.08 0.07 0.07 0.07 0.07 0.07 0.07 0.07 0.07 0.06 0.06 0.06 0.06 0.06 0.05 0.05 0.05 0.05 0.05 0.04 0.04 0.04 0.04 0.04 0.04 0.04 0.04 0.04 0.04 0.04 0.04 0.04 0.03 0.03 0.03 0.03 0.03 0.03 0.04 0.04 0.04
0.15 0.15 0.16 0.16 0.15 0.15 0.15 0.15 0.15 0.15 0.15 0.15 0.14 0.14 0.14 0.14 0.14 0.14 0.14 0.14 0.14 0.14 0.14 0.13 0.13 0.13 0.13 0.13 0.13 0.13 0.12 0.12 0.11 0.11 0.10 0.10 0.09 0.09 0.09 0.08 0.08 0.08 0.08 0.08 0.08 0.07 0.07 0.07 0.07 0.07 0.07 0.07 0.06 0.06 0.06 0.06 0.06 0.06 0.05 0.05 0.05 0.05 0.04 0.04 0.04 0.04 0.04 0.04 0.04 0.04 0.04 0.04 0.04 0.04 0.04 0.03 0.03 0.03 0.03 0.03 0.03 0.03 0.04 0.04 0.04
0.15 0.15 0.15 0.15 0.15 0.15 0.15 0.15 0.15 0.14 0.14 0.14 0.14 0.14 0.14 0.14 0.14 0.14 0.14 0.14 0.14 0.13 0.13 0.13 0.13 0.13 0.13 0.13 0.13 0.12 0.12 0.11 0.11 0.10 0.10 0.09 0.09 0.09 0.08 0.08 0.08 0.08 0.08 0.08 0.07 0.07 0.07 0.07 0.07 0.07 0.07 0.07 0.06 0.06 0.06 0.06 0.06 0.05 0.05 0.05 0.05 0.05 0.04 0.04 0.04 0.04 0.04 0.04 0.04 0.04 0.04 0.04 0.04 0.04 0.03 0.03 0.03 0.03 0.03 0.03 0.03 0.03 0.04 0.04 0.04
0.15 0.15 0.15 0.15 0.15 0.14 0.14 0.14 0.14 0.14 0.14 0.14 0.14 0.14 0.14 0.14 0.13 0.13 0.13 0.13 0.13 0.13 0.13 0.13 0.13 0.13 0.12 0.12 0.12 0.12 0.11 0.11 0.10 0.10 0.09 0.09 0.09 0.08 0.08 0.08 0.08 0.08 0.08 0.08 0.07 0.07 0.07 0.07 0.07 0.07 0.07 0.06 0.06 0.06 0.06 0.06 0.06 0.05 0.05 0.05 0.05 0.04 0.04 0.04 0.04 0.04 0.04 0.04 0.04 0.04 0.04 0.04 0.04 0.03 0.03 0.03 0.03 0.03 0.03 0.03 0.03 0.04 0.04 0.04 0.04
0.14 0.14 0.14 0.14 0.14 0.14 0.14 0.14 0.14 0.14 0.13 0.13 0.13 0.13 0.13 0.13 0.13 0.13 0.13 0.13 0.13 0.13 0.13 0.13 0.13 0.12 0.12 0.12 0.12 0.11 0.11 0.10 0.10 0.09 0.09 0.09 0.09 0.08 0.08 0.08 0.08 0.08 0.08 0.07 0.07 0.07 0.07 0.07 0.07 0.07 0.06 0.06 0.06 0.06 0.06 0.06 0.06 0.05 0.05 0.05 0.05 0.04 0.04 0.04 0.04 0.04 0.04 0.04 0.04 0.04 0.04 0.04 0.03 0.03 0.03 0.03 0.03 0.03 0.03 0.03 0.04 0.04 0.04 0.04 0.04
0.14 0.14 0.14 0.14 0.14 0.13 0.13 0.13 0.13 0.13 0.13 0.13 0.13 0.13 0.13 0.13 0.13 0.13 0.13 0.13 0.13 0.12 0.12 0.12 0.12 0.12 0.12 0.11 0.11 0.11 0.10 0.10 0.09 0.09 0.09 0.08 0.08 0.08 0.08 0.08 0.08 0.07 0.07 0.07 0.07 0.07 0.07 0.07 0.07 0.07 0.06 0.06 0.06 0.06 0.06 0.06 0.05 0.05 0.05 0.05 0.05 0.04 0.04 0.04 0.04 0.04 0.04 0.04 0.04 0.04 0.04 0.04 0.03 0.03 0.03 0.03 0.03 0.03 0.03 0.03 0.04 0.04 0.04 0.04 0.04
0.13 0.13 0.13 0.13 0.13 0.13 0.13 0.13 0.13 0.13 0.13 0.13 0.13 0.13 0.13 0.12 0.12 0.12 0.12 0.12 0.12 0.12 0.12 0.12 0.12 0.12 0.11 0.11 0.11 0.10 0.10 0.09 0.09 0.09 0.08 0.08 0.08 0.08 0.08 0.08 0.07 0.07 0.07 0.07 0.07 0.07 0.07 0.07 0.07 0.06 0.06 0.06 0.06 0.06 0.05 0.05 0.05 0.05 0.05 0.05 0.05 0.04 0.04 0.04 0.04 0.04 0.04 0.04 0.04 0.04 0.04 0.03 0.03 0.03 0.03 0.03 0.03 0.03 0.03 0.03 0.04 0.04 0.04 0.04 0.05
0.13 0.13 0.13 0.13 0.13 0.13 0.12 0.12 0.12 0.12 0.12 0.12 0.12 0.12 0.12 0.12 0.12 0.12 0.12 0.12 0.12 0.12 0.12 0.12 0.11 0.11 0.11 0.10 0.10 0.10 0.09 0.09 0.09 0.08 0.08 0.08 0.08 0.08 0.08 0.07 0.07 0.07 0.07 0.07 0.07 0.07 0.07 0.07 0.07 0.06 0.06 0.06 0.06 0.06 0.05 0.05 0.05 0.05 0.05 0.05 0.04 0.04 0.04 0.04 0.04 0.04 0.04 0.04 0.04 0.04 0.04 0.04 0.03 0.03 0.04 0.03 0.04 0.04 0.04 0.04 0.04 0.04 0.04 0.05 0.05
0.12 0.12 0.12 0.12 0.12 0.12 0.12 0.12 0.12 0.12 0.12 0.12 0.12 0.12 0.12 0.12 0.12 0.12 0.12 0.12 0.12 0.11 0.11 0.11 0.11 0.11 0.10 0.10 0.09 0.09 0.09 0.09 0.08 0.08 0.08 0.08 0.08 0.08 0.07 0.07 0.07 0.07 0.07 0.07 0.07 0.07 0.07 0.07 0.07 0.06 0.06 0.06 0.06 0.05 0.05 0.05 0.05 0.05 0.05 0.05 0.04 0.04 0.04 0.04 0.04 0.04 0.04 0.04 0.04 0.04 0.04 0.04 0.04 0.04 0.04 0.04 0.04 0.04 0.04 0.04 0.04 0.04 0.05 0.05 0.05
0.12 0.12 0.12 0.12 0.12 0.12 0.12 0.12 0.12 0.12 0.11 0.11 0.11 0.11 0.11 0.11 0.11 0.11 0.11 0.11 0.11 0.11 0.11 0.11 0.10 0.10 0.10 0.09 0.09 0.09 0.09 0.08 0.08 0.08 0.08 0.08 0.08 0.07 0.07 0.07 0.07 0.07 0.07 0.07 0.07 0.07 0.07 0.07 0.06 0.06 0.06 0.06 0.06 0.05 0.05 0.05 0.05 0.05 0.05 0.05 0.05 0.05 0.04 0.04 0.04 0.04 0.04 0.04 0.04 0.04 0.04 0.04 0.04 0.04 0.04 0.04 0.04 0.04 0.04 0.04 0.04 0.05 0.05 0.05 0.05
Wind_Speed
28 28 28 29 29 29 30 30 30 30 30 30 30 31 31 32 32 33 33 34 34 34 35 35 35 36 36 37 37 38 38 38 38 38 39 40 40 40 41 41 41 41 40 40 40 40 39 39 39 39 39 39 39 39 39 39 39 38 38 38 38 38 38 37 36 36 36 36 36 36 36 36 36 36 36 37 37 38 38 38 39 39 39 40 41
28 29 29 29 30 30 30 31 31 31 31 31 31 31 32 33 33 33 34 34 34 35 35 35 35 36 36 36 37 37 37 37 37 38 38 39 39 39 39 39 39 38 38 38 38 38 37 37 37 37 38 38 37 38 38 37 37 37 37 37 37 37 38 38 37 37 37 36 36 36 36 36 37 37 37 38 38 38 39 39 39 40 40 41 42
29 29 30 30 30 31 31 31 32 32 32 32 32 32 33 33 34 34 34 35 35 35 35 35 35 35 36 36 36 36 36 36 37 37 37 38 37 37 37 37 37 36 36 36 36 36 36 35 36 36 36 36 35 35 36 35 35 35 35 35 36 36 37 37 37 37 37 37 36 36 36 36 37 37 37 38 38 38 38 39 40 40 41 41 42
30 30 30 31 31 31 32 32 32 33 33 33 33 33 34 34 34 35 35 35 36 35 36 36 35 35 35 35 35 35 35 35 36 36 36 36 36 36 35 35 35 35 35 34 34 34 34 34 34 34 34 34 34 33 33 33 33 33 33 34 34 34 35 36 36 36 36 36 36 36 36 36 36 36 37 37 37 37 38 39 39 40 40 41 41
30 31 31 31 32 32 33 33 33 34 34 34 34 34 35 35 35 36 36 36 36 36 36 35 35 35 35 34 34 34 34 34 35 35 34 34 34 34 34 33 33 33 33 33 33 32 32 32 32 32 32 32 32 31 31 31 31 31 31 32 32 32 33 33 33 34 33 33 34 34 34 34 34 35 35 36 36 37 37 38 38 39 40 40 41
31 32 32 32 33 33 34 34 34 34 35 35 35 35 35 36 36 36 36 36 36 36 36 35 35 35 34 34 34 34 34 33 33 33 33 33 32 32 32 31 31 31 31 31 31 30 30 30 30 30 30 30 30 29 30 30 30 30 30 30 30 31 31 31 31 31 31 31 31 31 32 32 32 33 34 34 35 36 36 37 37 38 39 40 40
32 32 32 33 33 34 34 35 35 35 36 36 36 36 36 36 36 36 36 36 36 36 35 35 34 34 34 33 33 33 33 32 32 32 31 31 30 30 29 29 29 28 28 28 28 28 28 28 28 28 28 28 28 28 28 28 28 28 28 29 29 29 29 29 29 29 29 29 29 30 30 31 31 32 33 33 34 34 35 36 37 38 39 40 41
32 33 33 34 34 35 35 36 36 36 36 36 37 36 36 37 37 36 36 36 35 35 35 34 34 33 33 33 32 32 31 31 31 30 29 28 28 27 27 27 26 26 26 26 26 26 26 26 26 26 26 26 26 26 27 27 27 27 27 28 28 27 27 27 27 27 27 27 28 28 29 30 30 31 32 32 33 33 34 35 37 38 39 40 41
33 33 34 34 35 36 36 36 37 37 37 37 37 37 37 37 37 36 36 35 35 34 34 33 33 33 32 32 31 30 30 30 29 28 27 26 25 25 25 25 24 24 24 24 24 24 24 23 23 23 23 23 23 23 24 24 25 25 26 26 26 25 25 25 25 26 26 26 27 27 28 28 29 30 30 31 32 33 34 35 36 38 39 40 40
33 34 34 35 36 36 37 37 37 37 37 37 37 37 37 37 37 36 36 35 34 34 33 33 32 32 31 30 30 29 29 28 26 26 25 24 24 23 23 23 23 22 22 22 22 22 22 22 22 22 22 22 22 22 21 21 21 22 22 23 23 23 23 23 24 24 25 25 26 26 27 27 28 29 30 31 32 33 34 35 37 38 39 40 40
34 34 35 36 36 37 37 37 38 37 37 37 37 37 37 37 36 36 35 35 34 33 32 32 31 31 30 29 28 28 26 25 24 23 23 22 22 22 21 21 21 21 21 21 21 21 21 21 21 21 21 21 20 20 20 19 19 18 19 19 20 21 21 22 22 23 23 23 24 25 25 26 28 29 30 31 32 34 35 36 37 38 39 40 41
35 35 35 36 37 37 38 38 38 38 37 37 37 37 37 36 36 35 35 34 33 32 31 30 30 29 28 27 26 25 24 23 22 21 20 20 20 20 20 19 19 19 19 19 19 20 20 20 19 19 19 19 19 19 18 18 18 18 18 18 18 19 20 20 21 22 22 23 23 24 25 27 28 29 30 32 33 34 36 36 38 39 40 41 43
35 36 36 36 37 37 38 38 38 38 37 37 37 37 36 36 35 34 34 33 32 30 29 28 28 27 26 25 24 23 22 21 20 19 18 17 17 17 17 17 17 17 17 17 18 18 18 18 18 18 18 17 17 17 17 17 18 18 19 19 19 19 19 20 21 21 22 23 23 25 26 27 29 30 31 32 34 35 36 37 38 40 41 42 44
35 36 36 37 37 38 38 38 38 37 37 37 37 36 36 35 34 33 32 31 30 29 27 26 26 24 23 22 21 20 19 18 17 16 16 16 15 15 15 15 14 14 15 15 15 16 16 16 16 16 16 16 16 16 16 17 18 19 19 19 20 20 20 21 21 22 23 24 24 26 27 28 29 31 32 33 34 35 37 38 39 40 42 43 45
36 36 37 37 38 38 38 38 38 37 37 37 36 35 35 34 33 32 31 29 28 27 26 25 24 23 22 21 19 18 17 16 15 15 14 14 14 14 13 13 13 13 13 13 14 14 14 14 15 15 15 15 16 16 16 17 18 18 19 19 20 21 21 22 22 23 24 25 26 27 28 29 31 32 33 34 35 36 37 39 40 41 43 44 46
36 37 37 37 38 38 39 38 37 37 37 36 36 35 34 33 31 30 29 28 26 25 24 23 22 21 21 20 18 17 16 15 14 14 14 13 13 13 13 13 13 13 13 13 13 13 14 14 14 15 15 15 16 16 16 17 17 18 19 19 20 20 21 22 23 24 25 25 27 28 29 30 31 32 33 34 35 36 38 40 41 42 43 45 46
36 37 37 38 38 39 39 38 37 37 36 36 35 34 33 31 30 29 27 26 25 24 22 22 21 20 20 19 18 17 16 15 14 14 14 13 13 13 13 13 13 13 13 13 13 13 13 14 14 14 15 15 16 16 17 17 18 18 19 19 20 21 22 22 23 24 25 26 27 28 29 30 32 33 34 35 36 38 39 40 41 42 44 45 46
37 37 38 38 39 39 39 38 37 36 36 35 34 33 32 30 29 28 26 25 23 22 21 21 20 19 19 18 17 16 16 15 15 15 14 14 14 14 14 14 13 13 13 14 14 14 14 14 15 15 16 16 17 17 18 18 19 19 19 20 21 21 22 23 23 24 25 26 27 28 30 31 32 33 34 36 37 38 39 40 42 43 44 45 47
37 38 38 39 39 39 39 38 37 36 35 34 33 32 30 29 28 26 25 23 22 21 21 20 19 19 18 18 17 16 16 16 16 15 15 14 14 14 15 15 14 14 14 14 14 15 15 15 15 16 16 17 17 18 19 19 20 20 20 20 21 22 22 23 23 24 25 26 28 29 30 31 33 34 35 36 38 39 40 41 42 43 44 46 47
38 38 39 39 39 39 38 38 37 35 34 33 32 31 29 28 26 25 24 22 21 21 20 20 19 18 18 18 17 17 17 16 16 16 15 15 15 15 15 15 15 15 15 15 15 15 15 15 15 16 16 17 17 18 19 19 20 20 20 20 21 22 23 23 24 25 26 27 28 29 31 32 33 34 35 37 38 39 40 41 42 43 45 46 48
38 38 39 39 39 39 38 37 36 34 33 32 31 29 28 27 25 24 23 22 21 20 20 19 19 18 18 18 18 17 17 17 17 17 16 15 15 15 15 15 15 15 15 15 15 15 15 16 16 16 17 17 18 18 18 19 19 20 20 21 22 22 23 24 25 26 27 28 29 30 31 32 33 34 36 37 38 39 41 42 43 44 45 47 48
38 38 38 38 38 38 38 37 35 33 32 31 29 28 27 25 24 23 22 21 21 20 20 20 19 19 18 18 18 18 18 18 18 18 17 17 16 16 16 16 16 16 16 16 16 16 16 16 17 17 18 18 18 18 18 19 20 21 21 22 22 23 23 24 25 26 27 28 29 30 31 32 33 35 36 37 39 40 41 43 44 46 47 48 49
38 38 38 38 38 37 37 36 34 32 31 29 28 27 25 24 23 22 21 21 20 20 20 20 19 19 18 18 19 19 19 19 19 19 18 18 18 17 17 17 17 17 17 17 17 17 17 17 17 18 18 18 19 19 19 20 20 21 22 22 22 23 24 25 26 27 28 29 30 31 32 33 34 35 36 38 39 41 43 44 45 47 48 49 50
37 37 38 37 37 37 36 35 33 31 30 28 27 25 24 23 22 21 21 21 20 20 20 20 20 19 19 19 19 19 20 20 20 19 19 19 19 19 18 18 18 17 17 18 17 17 18 18 18 18 19 19 19 20 20 20 21 21 22 22 23 24 24 25 26 27 28 29 30 31 32 33 35 36 37 39 41 42 44 45 46 47 49 50 51
37 37 37 37 37 36 35 33 32 30 29 27 26 24 23 22 22 21 21 21 21 20 20 21 20 20 19 19 19 20 20 20 20 19 20 20 19 19 19 19 18 18 18 18 18 18 19 19 19 19 19 19 20 20 21 21 21 22 22 23 23 24 25 25 26 27 28 30 31 32 33 34 35 37 39 41 42 43 44 45 47 48 49 50 51
37 37 37 37 36 35 34 32 31 30 28 26 25 24 23 22 21 21 21 21 20 20 21 21 21 21 20 20 20 20 20 20 20 20 20 20 19 19 19 19 19 19 19 19 19 19 19 19 19 19 20 20 20 21 21 21 22 22 23 23 24 25 25 26 27 28 29 30 31 32 34 35 37 38 40 41 42 44 45 46 47 48 49 51 51
37 37 36 36 36 34 33 32 30 29 27 26 24 23 22 22 21 21 20 20 20 20 21 21 21 21 21 21 20 20 21 21 21 20 20 20 20 20 20 20 19 19 19 19 19 19 20 20 20 20 20 20 21 21 21 22 22 23 23 24 25 25 26 27 27 28 30 31 32 33 34 36 38 39 40 42 43 44 46 47 48 49 50 51 51
37 36 36 36 35 34 32 31 29 28 27 25 24 23 22 22 21 21 20 20 20 20 21 21 22 22 21 21 21 21 21 21 21 21 21 21 20 20 20 20 20 20 20 20 20 20 20 20 20 21 21 21 21 21 22 22 22 23 24 24 25 26 26 27 28 29 30 31 33 34 35 37 38 39 41 42 43 45 47 48 49 50 50 51 52
36 36 36 35 35 33 32 30 29 28 26 25 24 23 23 22 22 21 20 20 20 20 21 21 22 22 22 21 21 21 21 21 21 21 21 21 21 20 20 21 21 21 21 20 20 20 21 21 21 21 21 21 21 22 22 22 23 23 24 25 25 26 27 27 28 30 31 32 33 35 36 37 39 40 42 43 44 46 47 48 49 50 50 51 51
36 36 36 35 34 33 31 30 28 27 26 25 24 23 22 22 22 21 20 20 20 20 21 21 21 22 21 21 21 21 21 21 21 21 21 21 21 21 21 21 21 21 21 21 21 21 21 21 21 21 21 21 22 22 22 23 23 24 24 25 26 26 27 28 29 30 31 33 34 35 37 38 40 41 42 44 45 46 48 49 49 50 50 51 51
36 36 35 35 34 32 31 29 28 26 25 24 24 23 22 22 22 21 21 20 20 21 21 21 21 22 21 21 21 21 21 21 21 21 21 21 21 21 21 22 22 22 22 21 21 21 21 21 21 21 21 22 22 23 23 23 24 24 25 25 26 27 28 29 30 31 32 34 35 36 38 39 41 42 43 45 46 47 48 48 49 49 50 50 50
36 35 35 34 33 31 30 29 27 26 25 24 24 23 23 22 22 21 21 21 21 21 21 21 22 22 22 21 21 21 21 21 21 22 22 22 22 22 22 22 22 22 22 21 21 22 22 22 22 22 22 22 23 23 23 24 24 25 25 26 27 27 28 29 30 32 33 34 36 37 39 40 41 42 44 45 46 48 48 48 49 49 49 49 49
36 35 34 33 32 30 29 28 27 26 25 24 24 23 23 23 22 22 21 21 21 22 22 22 22 22 22 22 22 22 22 22 22 22 22 23 23 22 22 22 22 22 22 22 22 22 22 22 22 22 22 22 23 23 24 24 24 25 26 26 27 28 29 30 31 33 34 35 36 38 39 40 42 43 44 46 47 47 48 48 48 48 48 48 47
36 35 34 32 31 30 28 27 26 26 25 24 24 24 23 23 23 22 22 21 21 21 22 22 22 22 22 22 22 22 22 22 22 23 23 23 23 22 22 22 22 22 22 22 22 22 22 22 22 22 22 23 23 23 24 24 25 25 26 27 28 29 30 31 32 33 34 36 37 38 40 41 42 43 45 46 47 47 47 47 47 47 47 47 46
35 34 33 32 30 29 28 27 26 25 25 24 24 24 24 23 23 23 23 22 22 22 22 22 22 22 22 22 22 23 23 22 23 23 23 22 22 22 22 22 22 22 22 22 22 22 22 22 22 22 23 23 23 23 24 25 25 26 27 28 28 29 30 32 33 34 35 36 38 39 40 41 43 44 45 46 46 47 47 46 46 46 46 45 44
35 34 32 31 30 29 27 26 25 25 25 24 24 24 24 23 23 23 23 23 22 22 22 22 22 22 22 22 22 22 22 22 22 22 22 22 22 22 22 22 22 22 22 22 22 22 22 22 22 23 23 23 23 24 24 25 26 26 27 28 29 30 31 32 33 35 36 37 38 40 41 42 43 44 45 46 46 46 46 45 45 44 44 43 42
34 33 32 30 29 28 27 26 25 25 24 24 24 24 24 24 24 24 23 23 23 22 22 22 22 22 22 22 22 22 22 22 22 22 23 23 23 22 22 22 22 22 22 22 22 22 22 22 22 23 23 23 24 24 25 26 26 27 28 29 30 31 32 33 34 35 37 38 39 40 41 42 43 44 45 45 45 44 44 44 43 43 42 41 40
34 32 31 29 28 27 26 25 25 25 24 24 24 24 24 24 24 24 24 23 23 23 23 22 22 22 22 22 22 22 22 22 22 23 23 23 23 23 22 22 22 23 22 22 22 22 23 23 23 23 23 24 24 25 26 26 27 28 28 29 30 31 33 34 35 36 37 38 39 40 41 42 43 44 44 44 43 43 43 42 42 41 40 39 38
33 31 30 28 27 26 26 25 25 24 24 24 24 24 24 24 24 24 24 24 23 23 23 23 23 23 23 22 22 22 22 23 23 23 23 23 23 22 22 22 23 23 22 22 22 23 23 23 23 23 24 24 25 25 26 27 27 28 29 30 31 32 33 34 35 36 37 38 40 41 42 42 43 43 43 42 42 41 41 41 40 39 38 37 35
31 30 29 28 27 26 25 25 24 24 24 24 24 24 24 24 24 24 24 24 24 24 24 24 23 23 23 23 23 23 23 23 23 23 23 23 23 23 23 23 23 22 22 22 22 23 23 23 23 24 24 25 25 26 27 27 28 29 30 30 32 33 34 35 36 37 38 39 40 41 41 42 42 42 41 40 40 40 40 39 38 37 36 35 34
30 29 28 27 26 26 25 25 24 24 24 24 24 24 24 24 24 24 24 24 24 24 24 24 24 24 23 23 23 23 23 23 23 23 23 23 23 23 23 22 22 22 22 22 22 23 23 23 24 24 25 25 26 26 27 28 29 29 30 31 32 33 34 35 36 37 38 39 40 40 40 40 40 40 39 39 39 39 38 37 36 35 34 33 33
29 28 27 26 26 25 25 25 24 24 24 23 23 23 23 23 23 24 24 24 24 24 24 24 24 24 24 24 24 23 23 23 23 23 23 23 23 23 22 22 22 22 23 23 23 23 23 24 24 24 25 25 26 27 28 28 29 30 31 32 33 34 35 35 36 38 39 39 39 39 39 39 39 38 38 38 38 37 36 35 34 33 33 32 32
28 27 26 26 25 25 25 24 24 23 23 23 23 23 23 23 23 23 23 24 24 24 24 24 23 23 24 24 24 24 23 23 23 23 23 23 23 22 22 22 23 23 23 23 23 23 24 24 24 25 25 26 27 27 28 29 30 30 31 32 33 34 35 36 37 38 39 39 38 38 38 38 37 37 37 37 36 34 33 33 32 32 32 32 32
27 27 26 26 25 25 25 24 23 23 23 23 23 23 23 23 23 23 23 23 24 24 24 24 23 23 23 23 23 23 23 23 23 23 23 22 22 22 22 22 22 23 23 23 23 24 24 24 25 25 26 27 27 28 29 30 31 31 32 32 33 34 35 36 37 38 38 38 37 37 36 36 36 36 35 34 33 32 32 31 31 31 31 31 31
27 26 26 26 25 25 24 24 23 23 22 22 22 23 23 23 23 23 23 24 24 24 24 24 23 23 23 23 23 23 23 23 22 22 22 22 22 22 22 22 22 23 23 23 23 24 24 25 25 26 26 27 28 29 30 30 31 32 32 33 34 35 36 37 37 37 37 37 36 35 34 34 35 34 33 32 31 31 30 30 30 30 30 31 31
27 26 26 25 25 25 24 23 23 23 22 22 23 23 23 23 23 23 23 23 23 23 23 23 23 23 23 23 23 23 23 22 22 22 22 22 22 22 22 22 22 23 23 23 24 24 25 25 26 26 27 28 28 29 30 30 31 32 33 34 35 36 37 37 37 36 36 35 34 33 33 33 33 32 30 30 30 29 29 29 29 29 30 30 31
26 26 25 25 25 24 24 23 23 23 22 23 23 23 23 23 23 23 23 23 23 23 23 23 23 23 23 23 23 22 22 22 22 22 22 22 22 22 22 22 23 23 23 24 24 24 25 25 26 27 27 28 29 29 30 31 31 32 33 34 35 36 36 36 35 35 34 33 33 33 32 31 30 29 29 29 28 28 28 28 28 28 29 30 31
26 26 25 25 25 24 24 23 23 23 23 23 23 23 23 23 23 23 23 23 23 23 23 23 23 23 23 22 22 22 22 22 22 22 22 22 22 22 22 23 23 23 23 24 24 24 25 26 26 27 28 28 29 30 30 31 32 33 34 35 35 35 35 34 34 33 32 32 32 32 30 29 28 27 27 27 27 27 27 27 27 28 29 30 31
26 26 25 25 25 24 24 23 23 23 23 23 23 23 23 23 23 23 23 23 23 23 23 23 23 23 22 22 22 22 22 22 22 22 22 22 22 22 22 22 23 23 23 23 24 24 25 26 26 27 28 28 29 30 30 31 32 33 34 34 34 34 34 33 32 31 31 31 31 29 28 27 26 26 26 26 26 26 26 26 27 28 29 30 32
26 26 25 25 25 24 24 24 23 23 23 23 23 23 23 23 23 23 23 23 23 23 23 23 23 23 23 23 23 22 22 22 22 22 21 22 22 22 22 22 23 23 23 24 24 25 25 26 26 27 28 28 29 30 31 32 33 33 34 33 33 33 32 31 30 30 30 29 28 26 25 25 25 25 24 24 24 24 25 26 27 28 29 30 32
26 26 25 25 25 24 24 24 23 23 23 23 23 23 23 23 23 23 23 23 23 23 23 23 23 23 23 23 23 22 22 22 22 22 22 22 22 22 22 22 23 23 23 24 24 25 25 26 26 27 28 28 29 30 31 32 33 33 33 32 32 31 30 29 29 29 28 27 25 24 24 24 23 23 23 23 23 24 24 26 27 28 29 31 32
Wind_Direction
307 307 306 305 305 305 304 304 304 303 302 300 299 297 296 295 294 293 292 291 290 289 288 288 287 286 285 284 283 281 279 278 277 275 274 273 272 271 269 268 267 267 266 265 264 263 262 261 261 261 261 261 261 261 261 261 261 261 261 261 261 262 263 264 266 268 268 268 269 271 272 272 274 276 277 278 280 282 283 284 285 286 286 287 287
307 306 306 305 305 304 304 304 303 303 302 301 300 298 297 296 295 294 293 293 292 290 289 289 288 287 285 284 283 282 280 278 277 276 274 273 272 271 270 269 268 267 266 265 264 263 262 261 261 261 261 261 261 261 261 262 262 262 262 262 262 262 262 263 265 267 268 269 270 271 272 273 274 276 278 279 281 283 284 285 285 286 287 287 288
306 306 306 305 305 305 304 304 303 303 302 301 300 299 298 297 297 296 295 294 293 292 291 290 288 287 286 285 283 282 281 279 278 277 275 274 273 271 270 268 266 266 265 264 263 262 261 260 261 261 261 261 261 261 261 262 262 262 263 263 263 263 263 263 264 266 268 269 270 271 273 274 275 277 279 281 282 283 283 284 285 286 287 288 289
306 306 306 305 305 305 304 304 304 304 303 302 301 300 300 299 298 297 296 295 294 293 291 290 289 288 286 285 284 282 281 280 278 277 276 274 272 271 269 268 266 265 264 263 262 261 260 260 260 260 260 260 261 261 262 262 262 262 263 264 264 264 264 265 266 267 267 269 271 272 273 274 276 278 280 281 282 283 284 286 286 287 288 289 289
306 306 306 306 305 305 305 304 304 304 304 303 302 301 301 300 298 297 296 295 294 293 292 290 289 288 287 286 284 282 281 280 278 277 276 274 272 270 269 268 266 264 263 262 262 261 260 260 259 260 260 260 261 261 262 262 263 263 264 265 266 266 267 268 268 268 268 269 271 272 274 275 277 279 281 282 283 284 285 286 287 288 289 290 291
306 306 306 306 305 305 305 305 304 305 304 303 303 302 301 300 299 297 296 295 294 293 292 291 289 288 287 286 285 283 281 279 278 277 275 273 271 269 268 266 265 264 263 262 261 261 260 260 260 260 260 260 261 261 262 263 264 265 266 266 267 268 268 269 269 269 269 270 271 273 275 276 278 280 282 284 284 285 286 287 287 289 290 291 292
306 306 306 306 306 306 305 305 304 304 304 304 303 302 301 300 299 298 296 295 294 293 292 291 290 289 287 286 285 283 281 279 278 276 274 272 270 268 267 266 265 264 262 261 261 261 260 260 260 261 261 261 261 262 263 264 265 266 266 267 267 268 268 268 269 269 270 271 272 274 276 277 279 281 283 285 285 286 288 289 289 291 292 293 293
306 306 307 306 306 306 305 305 304 304 304 303 303 302 301 300 299 298 297 296 294 293 292 291 290 289 287 286 284 283 281 279 277 275 273 271 269 268 266 265 264 263 262 261 260 260 260 260 260 260 261 261 262 263 264 265 265 266 266 267 267 267 268 269 270 270 271 272 274 276 277 279 281 282 284 286 287 288 290 292 293 294 295 295 295
306 306 306 306 306 306 306 305 304 304 304 303 303 302 302 301 299 298 296 296 294 293 292 291 290 289 287 284 282 281 279 277 275 273 272 270 268 267 266 265 264 263 262 261 260 260 260 260 260 260 261 262 262 263 265 266 266 265 266 267 267 268 268 269 270 271 272 273 275 277 279 281 283 284 286 288 289 290 292 293 294 295 297 297 297
305 306 306 306 306 306 306 305 304 304 304 304 303 302 302 301 299 298 296 295 294 293 292 291 290 288 285 282 280 278 277 275 273 272 270 269 267 266 265 263 262 262 261 260 260 259 260 260 259 260 261 261 262 262 263 265 266 266 266 266 267 268 269 270 271 272 273 275 277 279 281 283 285 287 288 290 291 292 294 295 296 297 298 299 299
305 306 306 307 307 307 306 305 305 304 304 304 303 302 302 301 299 297 296 295 294 292 291 290 289 287 283 280 278 277 275 273 272 270 268 267 266 265 263 262 261 260 260 259 259 258 259 260 259 259 260 260 260 261 261 263 265 266 267 267 267 268 270 271 272 274 275 277 278 281 283 285 287 289 290 292 293 294 295 296 297 298 299 300 300
306 306 307 307 307 307 306 305 305 305 304 304 303 303 302 301 299 296 295 294 293 292 290 289 287 285 281 277 276 275 272 271 270 268 266 265 264 263 262 260 260 259 259 258 258 258 258 259 259 259 260 260 259 260 260 262 263 265 268 270 271 271 272 273 274 276 277 279 281 284 285 287 289 291 292 294 294 295 296 297 298 299 300 300 300
306 306 307 307 307 307 307 306 305 305 304 304 304 303 301 300 298 296 294 293 292 291 289 287 285 282 278 275 273 272 269 267 266 265 264 262 261 261 260 259 259 259 258 258 258 258 258 258 258 258 259 258 258 259 261 263 264 267 270 273 275 276 277 278 278 279 280 283 285 287 288 289 291 293 294 296 296 297 298 299 300 300 300 301 300
306 307 307 308 308 308 307 306 305 305 305 304 304 302 301 299 297 295 294 292 291 289 286 285 283 278 274 272 271 268 264 263 261 261 261 259 259 259 258 258 258 258 259 259 258 258 258 258 258 258 258 259 260 261 263 265 268 270 272 275 277 279 280 280 281 282 284 286 288 289 290 291 292 294 296 297 298 299 300 300 301 301 301 301 302
306 307 308 308 308 308 307 306 306 305 305 304 303 302 300 299 297 294 292 291 289 286 284 282 279 274 270 268 267 263 259 257 256 257 258 256 256 256 257 258 258 258 259 259 258 258 258 258 258 258 259 260 261 263 266 268 270 272 274 276 278 280 281 282 283 284 285 286 288 290 291 292 294 296 298 299 299 300 300 301 301 302 302 302 303
307 307 308 308 308 308 308 307 306 305 305 304 302 301 300 298 296 293 291 288 286 283 281 279 275 271 266 263 260 257 255 252 252 253 254 253 254 256 257 258 258 259 260 260 260 259 259 259 260 260 261 262 264 266 268 270 273 274 276 277 278 281 283 284 285 286 287 288 289 292 294 295 297 298 299 300 300 300 301 302 302 303 303 304 305
306 307 308 308 309 309 308 307 306 305 304 303 302 300 299 297 295 292 288 286 283 280 277 275 272 268 262 257 254 253 251 249 248 250 251 251 254 256 258 258 258 259 260 260 260 260 260 260 261 262 264 266 267 268 269 271 274 276 278 279 281 282 284 286 288 288 290 291 293 294 296 297 298 299 299 300 301 302 303 303 304 305 305 305 306
306 307 308 309 309 309 308 307 306 304 303 302 301 299 298 296 293 289 286 283 280 276 274 272 269 264 258 253 251 250 249 247 246 248 250 250 253 256 258 259 259 260 261 261 261 261 261 262 263 265 266 268 269 270 271 273 276 278 280 282 284 284 285 287 289 290 292 293 295 296 297 298 299 300 301 301 302 303 304 304 305 306 306 306 306
306 307 308 309 309 309 309 307 306 304 302 301 299 298 296 294 291 287 283 280 276 274 271 269 266 260 253 248 247 248 248 246 245 247 248 250 252 255 258 260 261 261 262 262 263 263 263 264 266 266 268 270 272 273 274 275 278 280 281 283 285 286 287 288 290 292 293 294 296 297 298 299 301 302 302 303 304 305 305 305 306 306 307 308 308
307 308 309 309 309 309 309 308 306 304 301 299 298 296 294 292 288 284 280 276 273 271 269 265 262 257 250 246 247 248 248 246 245 246 248 251 253 257 260 261 261 261 261 262 263 264 266 268 269 270 271 273 275 277 278 277 278 279 281 284 286 287 288 290 293 294 295 296 297 299 300 301 302 303 304 305 306 306 307 307 307 308 308 308 309
307 308 308 309 309 309 309 308 306 303 301 298 296 295 292 289 285 280 277 273 269 268 265 261 258 254 249 246 247 248 247 245 244 246 248 251 255 258 261 263 261 261 261 262 264 266 268 270 272 273 275 276 278 280 281 279 278 280 282 285 286 288 291 293 295 296 297 298 299 301 302 303 304 304 305 306 307 308 309 309 309 309 309 309 309
306 307 308 308 308 309 308 307 305 302 300 297 295 293 290 286 282 277 273 270 267 264 261 257 254 251 248 247 248 249 248 246 245 247 248 251 255 258 261 262 262 262 262 263 265 267 270 272 274 276 277 277 279 281 281 280 281 283 285 287 289 291 293 294 296 297 299 300 301 302 303 304 305 306 307 308 309 310 310 311 311 311 310 310 310
306 306 307 307 308 308 307 307 304 301 298 295 292 290 287 283 278 274 270 267 264 262 258 255 251 249 247 247 247 249 249 247 247 248 250 252 255 257 259 260 261 262 263 264 266 269 271 273 275 277 278 278 280 282 282 283 285 286 288 289 291 293 295 296 297 298 299 301 302 303 305 306 307 308 309 310 310 311 311 311 312 312 311 311 311
305 305 306 306 307 307 306 305 303 300 296 293 290 287 283 279 275 270 267 264 262 259 256 253 249 248 247 247 247 249 250 249 249 250 252 254 255 256 258 260 261 262 264 266 268 270 272 274 275 277 278 278 280 282 284 285 287 288 289 291 292 294 296 297 298 299 301 302 304 305 306 307 308 309 310 311 311 312 312 312 312 313 313 313 312
304 304 305 305 305 305 305 304 301 298 295 290 287 283 279 275 271 267 264 262 260 257 254 251 249 247 246 247 247 249 250 251 250 251 252 253 254 256 258 260 261 263 265 267 268 270 272 274 276 278 279 280 281 284 285 287 288 289 291 292 294 295 296 297 299 301 302 303 304 306 307 308 309 310 311 311 312 312 313 313 314 314 314 314 314
302 303 304 304 304 304 303 301 299 296 292 288 284 280 276 272 268 265 262 259 258 255 253 250 248 247 246 247 248 249 251 252 252 252 252 253 254 256 258 260 261 263 265 266 268 270 273 275 277 278 280 281 283 285 286 287 289 290 292 293 294 296 297 298 300 301 303 304 305 306 308 309 310 311 311 312 313 313 314 314 315 315 315 315 315
301 302 302 303 303 302 300 299 296 293 290 286 281 277 273 269 266 263 260 258 256 254 252 250 248 246 246 247 248 250 252 253 254 254 253 254 256 256 258 260 261 263 265 267 269 271 274 276 277 279 281 283 284 285 286 288 289 290 292 294 295 296 298 299 300 301 303 305 306 308 309 310 311 312 312 313 314 314 315 315 315 316 316 316 316
301 301 301 301 301 299 298 296 293 290 287 283 278 274 270 266 263 260 258 256 255 254 252 249 248 246 246 247 248 250 252 253 254 255 255 256 257 258 259 260 261 263 266 267 269 272 274 276 278 280 281 283 284 285 286 288 289 291 293 295 296 297 298 299 301 302 304 306 307 309 310 311 312 313 313 314 315 315 316 316 316 316 317 316 316
300 300 300 300 299 297 295 293 290 287 284 280 276 272 267 263 261 259 257 255 255 254 253 251 249 248 247 247 248 250 252 254 255 255 256 256 257 258 259 260 261 263 265 267 270 272 274 276 278 279 281 283 284 285 286 288 290 292 294 295 296 297 299 300 302 303 305 307 308 309 311 312 313 314 314 315 316 316 316 317 317 317 317 317 316
299 299 298 298 297 295 293 290 287 284 281 277 274 270 265 262 259 258 256 254 253 253 253 252 251 249 249 249 250 251 253 255 255 254 255 256 256 256 257 258 261 263 265 267 270 272 274 276 278 279 281 283 284 285 287 289 291 292 294 295 297 298 300 301 303 304 306 308 309 310 311 312 313 314 315 316 316 317 317 317 317 317 317 317 317
298 298 297 296 295 293 291 288 284 281 278 274 271 267 263 260 257 256 254 253 252 252 251 251 250 249 250 250 251 252 253 253 252 253 255 256 256 256 257 258 260 263 265 268 270 272 274 276 278 279 281 282 283 285 287 289 291 293 294 296 297 299 301 302 304 306 307 308 309 311 312 313 314 315 315 316 317 317 318 318 318 318 318 318 317
296 296 295 294 293 291 288 285 281 278 275 272 268 263 260 258 256 254 252 252 251 250 250 250 250 249 250 250 251 252 253 253 253 254 255 256 257 257 257 258 260 262 265 267 270 272 273 275 277 279 280 282 283 285 287 290 292 293 295 297 298 300 301 303 305 307 308 309 310 311 312 313 314 315 316 317 317 318 318 318 318 318 318 318 318
295 295 293 292 291 288 285 282 278 275 272 269 265 261 257 255 253 252 252 251 250 250 249 249 249 249 250 250 251 253 254 254 255 256 256 257 257 257 257 259 261 262 265 267 269 271 273 275 277 279 280 282 284 286 288 290 292 293 295 297 299 301 302 304 306 307 308 309 311 312 313 314 315 316 316 317 317 318 318 318 319 319 319 319 319
293 293 291 289 288 285 282 279 276 273 270 266 263 259 256 254 252 251 250 250 250 250 249 248 248 249 250 250 251 253 254 255 256 257 257 258 257 257 258 260 261 263 265 267 269 271 273 275 277 279 280 282 284 286 289 291 292 294 296 297 299 301 303 305 306 308 309 310 311 313 314 315 315 316 317 317 318 318 319 319 319 319 319 319 320
292 291 289 287 285 282 279 276 273 271 268 264 261 258 256 254 251 250 249 249 249 250 250 250 249 249 250 251 252 253 254 255 256 257 258 258 257 256 258 260 262 263 265 267 269 271 273 275 277 279 281 283 285 287 289 291 293 295 296 298 300 302 304 306 307 308 309 311 312 313 314 315 316 316 317 318 318 319 319 319 320 320 320 320 320
290 289 286 284 282 280 277 274 271 269 266 263 260 257 255 253 251 249 249 249 249 250 251 251 252 252 252 253 254 255 256 256 257 258 258 257 256 256 258 261 262 264 266 268 270 272 274 276 277 279 281 283 285 288 290 292 293 295 297 299 301 303 305 306 307 309 310 311 312 313 314 315 316 317 317 318 319 319 319 320 320 320 321 321 321
288 286 284 282 280 278 275 272 270 267 264 261 258 256 254 253 251 249 249 248 249 249 250 250 251 252 253 254 255 256 257 257 258 258 258 257 256 257 260 262 263 264 266 268 270 273 274 276 278 280 282 284 286 289 291 292 294 296 298 300 302 303 305 306 308 309 311 312 313 314 315 315 316 317 318 318 319 319 320 320 321 321 321 322 322
286 284 282 280 277 275 273 271 268 265 262 259 257 255 254 252 250 249 248 248 248 249 249 250 250 252 253 255 255 256 257 258 259 259 258 257 257 259 261 262 263 265 267 269 271 273 275 277 278 280 282 285 287 289 291 293 295 297 299 300 302 304 305 307 308 310 311 312 313 314 315 316 316 317 318 318 319 320 320 321 321 322 322 323 323
284 282 279 276 274 272 270 269 266 263 259 257 255 253 252 251 250 249 248 248 248 249 250 251 252 252 254 255 255 255 257 257 258 258 257 257 258 260 261 263 264 265 268 270 271 273 275 277 279 281 283 285 287 289 291 293 295 297 299 301 302 304 306 307 309 310 311 312 313 314 315 316 317 317 318 319 319 320 320 321 322 322 323 323 324
281 279 277 274 271 270 268 267 264 261 257 254 253 252 251 250 249 248 248 248 248 249 250 251 252 253 254 254 255 256 257 257 257 257 257 258 259 261 262 263 264 266 269 270 272 274 276 278 280 281 283 285 287 289 292 294 296 298 300 301 303 304 306 308 309 310 311 312 313 314 315 316 317 317 318 319 320 320 321 322 322 323 323 324 324
279 276 274 271 269 267 266 265 262 259 256 253 251 251 250 249 248 248 247 247 248 249 250 251 253 254 254 254 255 256 257 257 257 256 257 258 259 260 262 263 265 267 269 271 273 275 276 278 280 281 284 286 288 290 292 295 297 299 300 302 303 305 306 308 309 310 311 313 314 314 315 316 317 317 318 319 320 320 321 322 323 323 324 324 325
276 273 271 269 267 265 264 263 260 257 254 252 251 250 250 249 248 247 247 247 248 249 250 252 253 254 254 254 254 255 256 257 256 256 257 258 259 261 262 264 265 267 269 271 272 274 276 278 280 282 284 287 289 291 293 295 297 299 300 302 304 305 307 308 309 311 312 313 314 314 315 316 317 317 318 319 320 321 322 322 323 324 324 325 325
273 271 269 267 265 264 263 262 259 256 253 251 250 249 249 248 248 247 247 247 248 249 250 252 253 254 254 254 254 255 255 256 255 256 258 259 260 261 263 264 265 267 268 270 272 273 275 278 280 283 285 287 289 292 294 296 297 299 301 303 304 305 307 308 310 311 312 313 313 314 315 316 317 318 318 319 320 321 322 323 323 324 325 325 326
271 269 267 265 263 262 261 260 257 254 252 250 249 248 247 247 246 246 246 247 247 249 250 252 253 254 254 254 254 254 254 254 255 256 258 260 260 262 263 264 265 267 268 270 272 274 276 279 281 284 286 288 290 292 294 296 297 299 301 303 304 306 308 309 310 311 312 312 313 314 315 316 317 318 319 320 320 321 322 323 324 325 325 326 327
269 267 264 262 261 260 259 257 255 252 251 250 249 248 247 246 246 246 247 247 248 249 251 252 253 254 254 254 253 253 253 254 255 257 259 259 260 262 263 264 266 268 270 272 274 275 278 280 283 285 288 290 291 293 295 296 298 299 301 303 304 306 308 309 310 310 311 312 313 314 315 316 317 318 319 320 321 321 322 323 324 325 326 327 327
268 265 263 260 259 258 256 255 252 251 249 248 248 247 246 246 246 247 248 249 249 250 251 252 252 253 253 253 253 252 253 254 256 257 258 259 260 262 263 265 267 269 271 273 275 277 279 281 284 286 289 290 292 294 295 297 299 300 302 303 305 306 307 308 309 310 311 311 312 313 315 316 317 317 318 320 321 322 323 324 325 326 326 327 328
266 264 261 259 257 255 254 252 250 249 249 248 248 247 247 247 247 248 249 249 250 251 251 252 252 252 252 252 252 253 254 255 256 257 258 259 260 262 263 265 268 270 272 274 276 278 281 283 285 287 289 291 293 295 296 298 300 301 303 304 305 306 307 308 309 309 310 310 311 313 314 315 317 317 318 320 321 322 324 325 325 326 327 327 328
264 261 259 257 255 253 251 250 249 248 248 248 248 247 247 248 248 248 249 249 250 251 251 252 252 252 252 252 253 254 255 256 256 257 257 259 260 262 264 266 268 270 273 275 277 279 282 284 286 288 289 291 294 295 297 299 301 302 304 305 306 307 307 308 309 309 309 310 312 313 313 314 316 317 319 321 322 323 324 325 326 327 327 328 329
262 259 257 256 254 251 249 248 248 247 248 248 248 248 248 248 248 249 249 250 250 251 251 251 251 251 251 252 253 254 255 255 256 257 257 259 260 262 265 267 269 272 274 276 278 281 283 285 286 288 290 292 294 296 298 300 301 303 305 305 306 307 308 308 308 309 310 311 312 312 313 314 316 318 320 322 323 324 325 326 326 327 328 328 329
260 258 256 254 252 250 248 247 247 247 247 247 247 247 247 248 248 249 250 250 250 250 250 250 250 250 251 252 253 254 255 255 256 257 258 259 261 263 265 268 270 272 275 277 279 281 283 285 287 290 291 293 295 297 299 300 302 304 304 305 306 307 307 307 308 309 311 311 311 312 312 314 316 319 321 322 323 324 325 326 327 328 328 328 329
258 256 254 252 250 248 247 247 246 246 246 246 247 247 248 248 249 249 250 250 250 250 249 250 250 251 252 253 254 254 255 255 256 257 258 259 261 263 266 268 271 273 275 277 279 282 284 286 289 291 293 295 296 298 300 302 303 304 304 305 306 306 306 307 308 310 311 311 311 311 312 315 317 320 322 323 324 325 326 326 327 328 328 329 330